Fitchburg, MA

4:29 AM EDT on July 17, 2019 (GMT -0400)
Fitchburg Municipal

Weather History for KFIT - May, 2019

Change the Weather History Date:

Saturday, May 25, 2019

  Actual Average (KORH) Record (KORH)
Temperature  
Mean Temperature 60 °F -  
Max Temperature 77 °F 66 °F 88 °F (1932)
Min Temperature 46 °F 48 °F 33 °F (1956)
Degree Days  
Heating Degree Days 4    
Growing Degree Days 10 (Base 50)    
Moisture  
Dew Point 44 °F    
Average Humidity 55    
Maximum Humidity 93    
Minimum Humidity 30    
Precipitation  
Precipitation 0.00 in - - ()
Sea Level Pressure  
Sea Level Pressure 30.13 in    
Wind  
Wind Speed 5 mph (SSW)    
Max Wind Speed 15 mph    
Max Gust Speed 21 mph    
Visibility 10 miles    
Events Rain    
Averages and records for this station are not official NWS values.
T = Trace of Precipitation, MM = Missing Value Source: NWS Daily Summary

Daily Weather History Graph

Daily Weather History Graph

Search for Another Location

Airport or City:

Astronomy

May. 25, 2019 Rise Set
Actual Time 5:16 AM EDT 8:11 PM EDT
Civil Twilight 4:43 AM EDT 8:45 PM EDT
Nautical Twilight 4:00 AM EDT 9:27 PM EDT
Astronomical Twilight 3:11 AM EDT 10:17 PM EDT
Moon 1:09 AM EDT (5/25) 11:14 AM EDT (5/25)
Length of Visible Light 16h 02m
Length of Day
14h 55m
Waning Gibbous, 60% of the Moon is Illuminated
May 25
Waning Gibbous
May 26
Last Quarter
Jun 3
New
Jun 10
First Quarter
Jun 17
Full

Hourly Weather History & Observations

Time (EDT) Temp. Dew Point Humidity Pressure Visibility Wind Dir Wind Speed Gust Speed Precip Events Conditions
12:52 AM 51.1 °F 46.0 °F 83% 30.15 in 10.0 mi Calm Calm - N/A   Clear
1:52 AM 48.9 °F 46.0 °F 90% 30.15 in 10.0 mi NW 3.5 mph - N/A   Clear
2:52 AM 48.0 °F 45.0 °F 89% 30.16 in 10.0 mi WNW 3.5 mph - N/A   Clear
3:52 AM 48.0 °F 45.0 °F 89% 30.18 in 10.0 mi North 4.6 mph - N/A   Clear
4:52 AM 46.0 °F 44.1 °F 93% 30.18 in 10.0 mi Calm Calm - N/A   Clear
5:52 AM 46.9 °F 44.1 °F 90% 30.19 in 10.0 mi Calm Calm - N/A   Clear
6:52 AM 53.1 °F 46.0 °F 77% 30.21 in 10.0 mi North 3.5 mph - N/A   Clear
7:52 AM 60.1 °F 48.0 °F 64% 30.22 in 10.0 mi North 4.6 mph - N/A   Clear
8:52 AM 64.9 °F 46.0 °F 50% 30.21 in 10.0 mi WNW 6.9 mph - N/A   Clear
9:52 AM 66.9 °F 42.1 °F 40% 30.19 in 10.0 mi Variable 3.5 mph - N/A   Clear
10:52 AM 69.1 °F 42.1 °F 38% 30.21 in 10.0 mi SSW 5.8 mph - N/A   Clear
11:52 AM 70.0 °F 43.0 °F 38% 30.19 in 10.0 mi SSE 9.2 mph - N/A   Clear
12:52 PM 72.0 °F 42.1 °F 34% 30.18 in 10.0 mi SW 10.4 mph - N/A   Clear
1:52 PM 73.9 °F 41.0 °F 30% 30.15 in 10.0 mi SSW 11.5 mph 16.1 mph N/A   Clear
2:52 PM 75.0 °F 42.1 °F 31% 30.13 in 10.0 mi South 10.4 mph 18.4 mph N/A   Clear
3:52 PM 75.9 °F 44.1 °F 32% 30.10 in 10.0 mi South 6.9 mph - N/A   Clear
4:52 PM 73.9 °F 42.1 °F 32% 30.07 in 10.0 mi SSW 10.4 mph - N/A   Clear
5:52 PM 73.0 °F 45.0 °F 37% 30.06 in 10.0 mi SSW 9.2 mph - N/A   Clear
6:52 PM 71.1 °F 45.0 °F 39% 30.05 in 10.0 mi SSW 15.0 mph - N/A   Clear
7:52 PM 69.1 °F 48.0 °F 47% 30.04 in 10.0 mi SSW 12.7 mph 20.7 mph N/A   Partly Cloudy
8:52 PM 66.0 °F 45.0 °F 47% 30.04 in 10.0 mi South 11.5 mph - N/A   Scattered Clouds
9:52 PM 63.0 °F 42.1 °F 46% 30.03 in 10.0 mi South 11.5 mph - N/A   Overcast
10:52 PM 62.1 °F 41.0 °F 46% 30.04 in 10.0 mi South 9.2 mph - N/A   Scattered Clouds
11:52 PM 59.0 °F 43.0 °F 55% 30.01 in 10.0 mi SSE 9.2 mph - 0.00 in Rain Light Rain